LFLC

Clermont-Ferrand Auvergne Airport

Airport
ICAO code
LFLC
IATA Code
CFE
Summary
ICAO Region
EUR
ICAO Territory
Location

Aulnat, Auvergne

Serving
Clermont-Ferrand
Elevation
1090 ft
Coordinates
45° 47' 12" N , 3° 10' 9" E
KCC
Metar
LFLC 251230Z AUTO VRB04KT CAVOK 21/10 Q1017 NOSIG

Clermont-Ferrand Auvergne Airport is an airport serving the French city of Clermont-Ferrand. It is located 6.7 km east of the city, in Aulnat.

Climatology

Temperate Oceanic climate (Köppen climate classification Cfb).

Runways

Designator Length Width Surface Rops
08L/26R 0 0 UNK No/No
8/26 3015 45 ASP Yes/Yes

Airport map

Aerial View

SKYbrary Partners:

Safety knowledge contributed by: